Location: W�rzburg
(49.7529°N, 9.8822°E)
Time: 14:09:54
(UTC+02:00)

ISS - Pass Details

Date: 07 January 2018
Orbit: 402 x 409 km, 51.6° (Epoch: 21 August)

Event Time Altitude Azimuth Distance (km) Brightness Sun altitude
Exits shadow 07:32:44 - 286° (WNW) 1,608 -1.5 -6.9°
Reaches altitude 10° 07:32:58 10° 286° (WNW) 1,513 -1.6 -6.9°
Maximum altitude 07:36:22 72° 202° (SSW) 452 -3.6 -6.4°
Drops below altitude 10° 07:39:45 10° 118° (ESE) 1,516 1.0 -5.9°
Sets 07:41:52 0° 116° (ESE) 2,381 3.0 -5.6°
